| time (UTC) | temp F | wind direction | speed MPH | gust MPH | rain 1hr in | rain 24hr in | rain mn in | humidity % | barometer mb |
| 20260831040100 | 55 | 161 | 0.0 | 0.0 | 0.00 | 0.00 | 0.00 | 91 | 1010.9 |
| 20260831034557 | 55 | 161 | 0.0 | 0.0 | 0.00 | 0.00 | 0.00 | 91 | 1011.4 |
| 20260831033102 | 55 | 161 | 0.0 | 0.0 | 0.00 | 0.00 | 0.00 | 91 | 1011.4 |
| 20260831031553 | 55 | 161 | 0.0 | 0.0 | 0.00 | 0.00 | 0.00 | 90 | 1011.5 |
| 20260831030053 | 55 | 161 | 0.0 | 0.0 | 0.00 | 0.00 | 0.00 | 90 | 1011.5 |
| 20260831024604 | 55 | 161 | 0.0 | 0.0 | 0.00 | 0.00 | 0.00 | 90 | 1011.4 |
| 20260831023050 | 56 | 161 | 0.0 | 0.0 | 0.00 | 0.00 | 0.00 | 90 | 1011.5 |
| 20260831021557 | 56 | 161 | 0.0 | 0.0 | 0.00 | 0.00 | 0.00 | 90 | 1011.7 |
| 20260831020048 | 56 | 161 | 0.0 | 1.0 | 0.00 | 0.00 | 0.00 | 90 | 1011.7 |
| 20260831014544 | 56 | 169 | 0.0 | 2.0 | 0.00 | 0.00 | 0.00 | 89 | 1011.8 |
| 20260831013042 | 56 | 170 | 0.0 | 2.0 | 0.00 | 0.00 | 0.00 | 88 | 1011.9 |
| 20260831011542 | 57 | 254 | 0.0 | 0.0 | 0.00 | 0.00 | 0.00 | 87 | 1012.1 |
| 20260831010104 | 57 | 254 | 0.0 | 0.0 | 0.00 | 0.00 | 0.00 | 87 | 1012.2 |
| 20260831004542 | 58 | 254 | 0.0 | 0.0 | 0.00 | 0.00 | 0.00 | 87 | 1012.3 |
| 20260831003034 | 58 | 254 | 0.0 | 0.0 | 0.00 | 0.00 | 0.00 | 86 | 1012.5 |
| 20260831001549 | 58 | 254 | 0.0 | 0.0 | 0.00 | 0.00 | 0.00 | 85 | 1012.5 |
| 20260831000029 | 59 | 254 | 0.0 | 0.0 | 0.00 | 0.00 | 0.00 | 85 | 1012.5 |
| 20260830234530 | 59 | 254 | 0.0 | 0.0 | 0.00 | 0.00 | 0.00 | 85 | 1012.4 |
| 20260830233026 | 59 | 254 | 0.0 | 0.0 | 0.00 | 0.00 | 0.00 | 84 | 1012.4 |
| 20260830231529 | 60 | 254 | 0.0 | 0.0 | 0.00 | 0.00 | 0.00 | 84 | 1012.4 |
| 20260830230022 | 60 | 254 | 0.0 | 0.0 | 0.00 | 0.00 | 0.00 | 83 | 1012.5 |
| 20260830224522 | 60 | 254 | 0.0 | 0.0 | 0.00 | 0.00 | 0.00 | 83 | 1012.4 |
| 20260830223023 | 61 | 254 | 0.0 | 1.0 | 0.00 | 0.00 | 0.00 | 82 | 1012.5 |
| 20260830221517 | 61 | 254 | 0.0 | 0.0 | 0.00 | 0.00 | 0.00 | 81 | 1012.4 |
| 20260830220016 | 62 | 254 | 0.0 | 0.0 | 0.00 | 0.00 | 0.00 | 80 | 1012.5 |
| 20260830214513 | 62 | 254 | 0.0 | 0.0 | 0.00 | 0.00 | 0.00 | 80 | 1012.5 |
| 20260830213011 | 63 | 254 | 0.0 | 0.0 | 0.00 | 0.00 | 0.00 | 79 | 1012.6 |
| 20260830211519 | 63 | 254 | 0.0 | 0.0 | 0.00 | 0.00 | 0.00 | 78 | 1012.5 |
| 20260830210012 | 64 | 254 | 0.0 | 0.0 | 0.00 | 0.00 | 0.00 | 77 | 1012.5 |
| 20260830204508 | 64 | 254 | 0.0 | 0.0 | 0.00 | 0.00 | 0.00 | 75 | 1012.4 |
| 20260830203013 | 65 | 254 | 0.0 | 0.0 | 0.00 | 0.00 | 0.00 | 74 | 1012.3 |
| 20260830201510 | 66 | 254 | 0.0 | 0.0 | 0.00 | 0.00 | 0.00 | 73 | 1012.3 |
| 20260830200007 | 66 | 254 | 0.0 | 1.0 | 0.00 | 0.00 | 0.00 | 72 | 1012.3 |
| 20260830194506 | 67 | 254 | 0.0 | 0.0 | 0.00 | 0.00 | 0.00 | 70 | 1012.4 |
| 20260830193005 | 67 | 254 | 0.0 | 0.0 | 0.00 | 0.00 | 0.00 | 69 | 1012.2 |
| 20260830191506 | 68 | 254 | 0.0 | 1.0 | 0.00 | 0.00 | 0.00 | 67 | 1012.2 |
| 20260830190007 | 69 | 248 | 0.0 | 1.0 | 0.00 | 0.00 | 0.00 | 66 | 1012.2 |
| 20260830184502 | 69 | 159 | 0.0 | 3.0 | 0.00 | 0.00 | 0.00 | 65 | 1012.1 |
| 20260830183123 | 70 | 275 | 0.0 | 2.0 | 0.00 | 0.00 | 0.00 | 64 | 1012.0 |
| 20260830181613 | 70 | 292 | 0.0 | 6.0 | 0.00 | 0.00 | 0.00 | 63 | 1011.9 |
| 20260830180109 | 71 | 272 | 0.0 | 4.0 | 0.00 | 0.00 | 0.00 | 62 | 1011.7 |
| 20260830174558 | 72 | 281 | 2.0 | 11.0 | 0.00 | 0.00 | 0.00 | 60 | 1011.5 |
| 20260830173117 | 72 | 260 | 1.0 | 5.0 | 0.00 | 0.00 | 0.00 | 59 | 1011.5 |
| 20260830171601 | 73 | 298 | 0.0 | 6.0 | 0.00 | 0.00 | 0.00 | 57 | 1011.3 |
| 20260830170052 | 74 | 275 | 0.0 | 8.0 | 0.00 | 0.00 | 0.00 | 56 | 1011.2 |
| 20260830164551 | 74 | 294 | 2.0 | 10.0 | 0.00 | 0.00 | 0.00 | 54 | 1011.0 |
| 20260830163055 | 75 | 252 | 2.0 | 13.0 | 0.00 | 0.00 | 0.00 | 53 | 1010.9 |
| 20260830160018 | 76 | 254 | 2.0 | 9.0 | 0.00 | 0.00 | 0.00 | 52 | 1010.6 |
| 20260830154518 | 76 | 277 | 3.0 | 9.0 | 0.00 | 0.00 | 0.00 | 52 | 1010.5 |
| 20260830153017 | 76 | 240 | 2.0 | 7.0 | 0.00 | 0.00 | 0.00 | 52 | 1010.3 |
| 20260830151520 | 77 | 326 | 2.0 | 10.0 | 0.00 | 0.00 | 0.00 | 52 | 1010.4 |
| 20260830150015 | 78 | 296 | 2.0 | 7.0 | 0.00 | 0.00 | 0.00 | 49 | 1010.3 |
| 20260830144518 | 77 | 250 | 2.0 | 8.0 | 0.00 | 0.00 | 0.00 | 50 | 1010.3 |
| 20260830143020 | 77 | 246 | 3.0 | 7.0 | 0.00 | 0.00 | 0.00 | 50 | 1010.2 |
| 20260830141514 | 77 | 276 | 1.0 | 9.0 | 0.00 | 0.00 | 0.00 | 51 | 1010.2 |
| 20260830140013 | 78 | 340 | 3.0 | 9.0 | 0.00 | 0.00 | 0.00 | 51 | 1010.1 |
| 20260830134533 | 78 | 262 | 1.0 | 7.0 | 0.00 | 0.00 | 0.00 | 53 | 1010.1 |
| 20260830133012 | 78 | 215 | 3.0 | 12.0 | 0.00 | 0.00 | 0.00 | 51 | 1010.0 |
| 20260830131511 | 81 | 142 | 4.0 | 15.0 | 0.00 | 0.00 | 0.00 | 48 | 1009.9 |
| 20260830130010 | 81 | 173 | 3.0 | 14.0 | 0.00 | 0.00 | 0.00 | 52 | 1009.8 |
| 20260830124509 | 79 | 325 | 2.0 | 17.0 | 0.00 | 0.00 | 0.00 | 54 | 1010.0 |
| 20260830123009 | 78 | 141 | 4.0 | 15.0 | 0.00 | 0.00 | 0.00 | 53 | 1009.9 |
| 20260830121507 | 80 | 171 | 2.0 | 16.0 | 0.00 | 0.00 | 0.00 | 55 | 1009.9 |
| 20260830120006 | 79 | 119 | 8.0 | 17.0 | 0.00 | 0.00 | 0.00 | 53 | 1009.9 |
| 20260830114505 | 80 | 134 | 1.0 | 15.0 | 0.00 | 0.00 | 0.00 | 57 | 1009.9 |
| 20260830113006 | 80 | 181 | 5.0 | 20.0 | 0.00 | 0.00 | 0.00 | 55 | 1009.9 |
| 20260830111503 | 81 | 223 | 6.0 | 15.0 | 0.00 | 0.00 | 0.00 | 53 | 1009.8 |
| 20260830110001 | 79 | 168 | 5.0 | 16.0 | 0.00 | 0.00 | 0.00 | 55 | 1010.0 |
| 20260830104601 | 78 | 172 | 4.0 | 16.0 | 0.00 | 0.00 | 0.00 | 57 | 1009.9 |
| 20260830103103 | 78 | 225 | 7.0 | 18.0 | 0.00 | 0.00 | 0.00 | 55 | 1010.0 |
| 20260830101601 | 79 | 140 | 3.0 | 15.0 | 0.00 | 0.00 | 0.00 | 57 | 1009.8 |
| 20260830100058 | 79 | 301 | 3.0 | 12.0 | 0.00 | 0.00 | 0.00 | 55 | 1009.7 |
| 20260830094558 | 81 | 250 | 2.0 | 14.0 | 0.00 | 0.00 | 0.00 | 51 | 1009.7 |
| 20260830093121 | 79 | 219 | 3.0 | 15.0 | 0.00 | 0.00 | 0.00 | 55 | 1009.9 |
| 20260830091555 | 80 | 279 | 4.0 | 14.0 | 0.00 | 0.00 | 0.00 | 54 | 1009.9 |
| 20260830090052 | 79 | 245 | 3.0 | 12.0 | 0.00 | 0.00 | 0.00 | 57 | 1009.9 |
| 20260830084550 | 77 | 283 | 5.0 | 20.0 | 0.00 | 0.00 | 0.00 | 58 | 1009.9 |
| 20260830083044 | 76 | 181 | 2.0 | 11.0 | 0.00 | 0.00 | 0.00 | 61 | 1009.8 |
| 20260830081541 | 74 | 263 | 3.0 | 12.0 | 0.00 | 0.00 | 0.00 | 62 | 1010.0 |
| 20260830080043 | 75 | 214 | 3.0 | 11.0 | 0.00 | 0.00 | 0.00 | 64 | 1009.9 |
| 20260830074553 | 74 | 203 | 4.0 | 11.0 | 0.00 | 0.00 | 0.00 | 65 | 1010.0 |
| 20260830073035 | 73 | 163 | 3.0 | 13.0 | 0.00 | 0.00 | 0.00 | 67 | 1009.8 |
| 20260830071531 | 73 | 197 | 5.0 | 14.0 | 0.00 | 0.00 | 0.00 | 66 | 1009.8 |
| 20260830070027 | 71 | 163 | 2.0 | 10.0 | 0.00 | 0.00 | 0.00 | 69 | 1009.8 |
| 20260830064523 | 69 | 200 | 3.0 | 10.0 | 0.00 | 0.00 | 0.00 | 74 | 1009.9 |
| 20260830063020 | 68 | 152 | 2.0 | 9.0 | 0.00 | 0.00 | 0.00 | 75 | 1009.8 |
| 20260830061525 | 68 | 195 | 3.0 | 9.0 | 0.00 | 0.00 | 0.00 | 77 | 1009.8 |
| 20260830060012 | 65 | 207 | 2.0 | 8.0 | 0.00 | 0.00 | 0.00 | 82 | 1009.7 |
| 20260830054520 | 65 | 180 | 1.0 | 7.0 | 0.00 | 0.00 | 0.00 | 83 | 1009.7 |
| 20260830053008 | 64 | 214 | 3.0 | 10.0 | 0.00 | 0.00 | 0.00 | 83 | 1009.7 |
| 20260830051518 | 63 | 221 | 1.0 | 4.0 | 0.00 | 0.00 | 0.00 | 86 | 1009.7 |
| 20260830050004 | 63 | 163 | 1.0 | 4.0 | 0.00 | 0.00 | 0.00 | 85 | 1009.7 |
| 20260830044502 | 63 | 171 | 1.0 | 6.0 | 0.00 | 0.00 | 0.00 | 84 | 1009.7 |
| 20260830043107 | 63 | 167 | 2.0 | 4.0 | 0.00 | 0.00 | 0.00 | 83 | 1009.7 |
| 20260830041626 | 63 | 195 | 1.0 | 3.0 | 0.00 | 0.00 | 0.00 | 83 | 1009.7 |